Showing default

AAC-HSI-SAT1, 56225

Orbit data source: Space-Track

AAC-HSI-SAT1, 56225 is a UK payload satellite in SSO that was launched on Sat, 15 Apr 2023 UTC via an FALCON 9 launch vehicle from the Air Force Western Test Range (AFWTR). Payload-class satellites include a variety of spacecraft equipped with specific instruments for various scientific and technological missions. These include communications satellites like Starlink; space stations such as the ISS; scientific satellites like the Hubble; Earth observation satellites from companies like Planet Labs, Umbra, and HawkEye 360; GPS; miniature CubeSats for education and research; and military/defense satellites.

Loading next visibility...
Identifier
56225, 2023-054AZ
Orbit
SSO
Country
Flag of UKUK
Related business
Manufacturer
AAC ClydeSpace
Mission
Operational Commercial Imaging
Bus & Motor
CUBESAT 6U, Unknown motor
Mass
10 kg wet, ~10 kg dry
Launch date (UTC)
2023-04-15 (3 years ago)
Launch vehicle
FALCON 9
Launch site
Air Force Western Test Range (AFWTR)
Object type
Payload
Rocket body
Debris
Shape & HBR
Box + 2 Pan, 1.0 m
Radar Cross Section
0.092 m², Medium (>0.1 m² and < 1m²)

Expand to show TLE details & history
Last TLE update: 13 hours ago

TLE from 13 hours ago
0 AAC-HSI-SAT1
1 56225U 23054AZ  26133.09872971  .00001088  00000-0  66284-4 0  9999
2 56225  97.3735  10.6767 0008325 242.1955 117.8433 15.12392759170064
Epoch: 2026-05-13T02:22Z
TLE epoch observation values (Epoch: 2026-05-13T02:22:10.246Z)
Latitude
-0.00002°
Longitude
104.27039°
Altitude
534.676 km
Speed
7.594 km/s
True Right ascension
00h 42m 42s
True Declination
0° 00' 00"
Sunlit
Object was in daylight at epoch
Visualization orbit readout
Latitude
Unknown
Longitude
Unknown
Altitude
Unknown
Speed
Unknown
Apparent Right ascension
Unknown
Apparent Declination
Unknown
Sunlit
N/A
Visualization observer readout
Local Sidereal Time
23:18:26
Azimuth
Unknown
Elevation
Unknown
Doppler factor
Unknown
Orbital elements
Apogee altitude
531.627 km
Perigee altitude
520.132 km
Semi-major axis
6,904.017 km
Eccentricity
0.00083
Inclination
97.3735°
RAAN
10.6767°
Arg. of periapsis
242.1955°
True anomaly
117.92761°
Mean anomaly
117.8433°
Eccentric anomaly
117.88546°
Mean motion
3.78347 °/min
Orbital period
95.15 mins
BSTAR
0.000066284
Loading maneuver chart data...
Computing Atmospheric mass density...
Loading historical data...
Loading historical data...
Loading historical data...
Loading historical data...
Loading historical data...
Loading historical data...
Loading historical data...

Documentation

Showing up to 5 results
|